User: anonymous
Location: Caltech
(34.1382°N, 118.1253°W)
Time: 15:23:45
(UTC-07:00)
Language:

CZ-4B DEB - Orbit

View from above orbital plane
View from above orbital plane
View from above satellite
View from above satellite

Ground track
Ground track

The orbit data is extracted from the following two-line orbital elements,

1 27433U 02024D   14203.81828168  .00000191  00000-0  12924-3 0  8765
2 27433 098.8285 168.9882 0015078 163.2452 254.2376 14.11576764627542
Epoch (UTC): 22 July 2014 19:38:19
Eccentricity: 0.0015078
inclination: 98.8285°
perigee height: 843 km
apogee height: 865 km
right ascension of ascending node: 168.9882°
argument of perigee: 163.2452°
revolutions per day: 14.11576764
mean anomaly at epoch: 254.2376°
orbit number at epoch: 62754

The dashed part of the orbit path shows where the satellite is in the earth's shadow,  

DLR